{"data":{"norad_id":53072,"epoch":"2026-05-25T01:45:08.495136Z","epoch_age_seconds":62753,"freshness":"FRESH","line1":"1 53072U 22077AF  26145.07301499  .00001611  00000+0  11569-3 0  9999","line2":"2 53072  97.4470 326.0952 0000803 131.5488 228.5808 15.05641020212471","mean_motion":15.0564102,"eccentricity":8.03e-5,"inclination_deg":97.447,"raan_deg":326.0952,"arg_perigee_deg":131.5488,"mean_anomaly_deg":228.5808,"bstar":0.00011569,"rev_number":21247,"period_min":95.640327333802,"perigee_km":548.98240707706,"apogee_km":550.09499179439,"semimajor_km":6927.6756994357,"source":"CELESTRAK","updated_at":"2026-05-25T13:38:17.311939Z"}}